Aviation WX

[Source: ADDS]
KFKL 220856Z AUTO 30003KT 10SM CLR M05/M08 A3000 RMK AO2 SLP178 T10501083 53006 FZRANO =
KFKL 220520Z 2206/2306 32006KT P6SM SCT150 FM221400 30008G16KT P6SM BKN025 FM221700 30010G20KT P6SM BKN035 FM230000 30005KT P6SM SKC =

Fuel Services

We have Avgas 100LL and Jet A premixed w/additive . Jet A can be delivered single point, or over the wing.  Quick Turn Around fueling is available, and we can do Hot Fueling of turbine helicopters by prior arrangement. 

Full service fueling is available during attended hours, or self serve after hours. 

If you would rather not pump the fuel yourself, after hours call out service is available at:

Aidan Stahlman 814-648-1626



If you need fuel or services after hours, you may use our self-service fuel system, or we will arrange to have someone meet you.

Need a rental car? We can have one waiting for you when you arrive. If you need to stay
overnight, we have a heated hangar available, and there are several motels with pickup service within 4 miles of the airport. Find out who we can service you with by checking out our Links

  Fuel Availablility:
Attended hours or 
24 hours by request

Fuel Prices: Please check current  fuel prices at: http://www.airnav.com/airport/KAXQ/A


Flight Training

Aircraft Rental


Laser Grade FAA/FCC Computer Testing Center